Terminal Aerodrome Forecast
Issued by NWS Pittsburgh, PA

Current Version | Previous Version | Graphics & Text | Print | Product List | Glossary On
Versions: 1 2 3 4 5 6 7 8 9 10 11 12 13 14 15 16 17 18 19 20 21 22 23
000
FTUS41 KPBZ 260855 AAA
TAFPIT
TAF AMD
KPIT 260855Z 2609/2712 18005KT P6SM OVC100
     FM261200 21007KT P6SM VCSH BKN050
     FM262100 22005KT P6SM BKN080=

USA.gov is the U.S. government's official web portal to all federal, state and local government web resources and services.